Skip Page Navigation
NASA JPL Caltech
NASA Logo - Jet Propulsion Laboratory + View the NASA Portal
+ Near-Earth Object (NEO) Program
Search JPL
JPL Home Earth Solar System Stars & Galaxies Technology
JPL Solar System Dynamics
BODIES ORBITS EPHEMERIDES TOOLS PHYSICAL DATA DISCOVERY FAQ SITE MAP
JPL Small-Body Database Browser
Search: [ help ]  
6 Hebe
Classification: Main-belt Asteroid          SPK-ID: 2000006
Ephemeris | Orbit Diagram | Orbital Elements | Physical Parameters | Discovery Circumstances ]

[ hide orbit diagram ]
Orbit Diagram
Note: Make sure you have Java enabled on your browser to see the applet. This applet is provided as a 3D orbit visualization tool. The applet was implemented using 2-body methods, and hence should not be used for determining accurate long-term trajectories (over several years or decades) or planetary encounter circumstances. For accurate long-term ephemerides, please instead use our Horizons system.
Orbit Viewer

Additional Notes: the orbits shown in the applet are color coded. The planets are white lines, and the asteroid/comet is a blue line. The bright white line indicates the portion of the orbit that is above the ecliptic plane, and the darker portion is below the ecliptic plane. Likewise for the asteroid/comet orbit, the light blue indicates the portion above the ecliptic plane, and the dark blue the portion below the ecliptic plane.

Orbit Viewer applet originally written and kindly provided by Osamu Ajiki (AstroArts), and further modified by Ron Baalke (JPL).


Orbital Elements at Epoch 2456400.5 (2013-Apr-18.0) TDB
Reference: JPL 80 (heliocentric ecliptic J2000)
 Element Value Uncertainty (1-sigma)   Units 
e .2017542409177789 1.9041e-08  
a 2.425830602546812 1.8364e-09 AU
q 1.936408990734862 4.606e-08 AU
i 14.74653957579902 2.1052e-06 deg
node 138.7104448157113 1.0784e-05 deg
peri 239.3771531711612 1.2511e-05 deg
M 232.7222167500824 6.8667e-06 deg
tp 2456888.409455450665
(2014-Aug-18.90945545)
2.6489e-05 JED
period 1380.031922911049
3.78
1.5671e-06
4.29e-09
d
yr
n .2608635307802254 2.9622e-10 deg/d
Q 2.915252214358762 2.2069e-09 AU
  Orbit Determination Parameters
   # obs. used (total)      5407  
   data-arc span      60137 days (164.65 yr)  
   first obs. used      1848-09-08  
   last obs. used      2013-05-03  
   planetary ephem.      DE405  
   SB-pert. ephem.      SB405-CPV-2  
   condition code      0  
   fit RMS      .51968  
   data source      ORB  
   producer      OSOD/JPL  
   solution date      2013-May-10 12:42:37  

Additional Information
 Earth MOID = .977164 AU 
 T_jup = 3.438 
[ show covariance matrix ]

Ephemeris | Orbit Diagram | Orbital Elements | Physical Parameters | Discovery Circumstances ]

Physical Parameter Table
Parameter Symbol Value Units Sigma Reference Notes
absolute magnitude H 5.71 mag n/a IRAS-A-FPA-3-RDR-IMPS-V6.0 IRAS observations used: 18
magnitude slope G 0.24   n/a PDS3 (MPC 17257) Fit
diameter diameter 185.18 km 2.9 IRAS-A-FPA-3-RDR-IMPS-V6.0 IRAS observations used: 18
rotation period rot_per 7.2745 h n/a Asteroid Lightcurve DataBase (Rev. 2013-May-01) Published Reference List:
[Ahmad, I.I. (1954) Astrophys. J. 120, 551-560.]
[Yang, X.-y.; Zhang, Y.-y.; Li, X.-q. (1965) Acta Astron. Sin. 13, 66-74.]
[Gehrels, T.; Taylor, R.C. (1977) Astron. J. 82, 229-237.]
[Di Martino, M.; Cacciatori, S. (1984) Icarus 60, 75-82.]
[Magnusson, P. (1986) Icarus 68, 1-39.]
[Michalowski, T. (1988) Acta Astronomica 38, 455-468.]
[Gil Hutton, R.; Blain, A. (1988) Minor Planet Bul. 15, 3-4.]
[Dotto, E.; De Angelis, G.; Di Martino, M.; Barucci, M.A.; et al. (1995) Icarus 117, 313-327.]
[De Angelis, G. (1995) Planet. Space Sci. 43, 649-682.]
[Riccioli, D.; Blanco, C.; Cigna, M. (2001) Planetary and Space Sci. 49, 657-671.]
[Torppa, J.; Kaasalainen, M.; Michalowski, T.; Kwiatkowski, T.; et al. (2003) Icarus 164, 346-383.]
[Durech, J.; Kaasalainen, M.; Herald, D.; Dunham, D.; et al. (2011) Icarus 214, 652-670.]
[Behrend, R. (2012) Observatoire de Geneve web site, http://obswww.unige.ch/~behrend/page_cou.html]
geometric albedo albedo 0.2679   0.008 IRAS-A-FPA-3-RDR-IMPS-V6.0 IRAS observations used: 18
B-V BV .822 mag .015 EAR-A-5-DDR-UBV-MEAN-VALUES-V1.1 #obs=27; phase (min.=1.33, mean=14.50, max.=28.87) deg.
U-B UB .399 mag .019 EAR-A-5-DDR-UBV-MEAN-VALUES-V1.1 #obs=24; phase (min.=1.33, mean=14.33, max.=28.87) deg.
Tholen spectral type spec_T S   n/a EAR-A-5-DDR-TAXONOMY-V4.0 used 7 color indices; used ground-based radiometric albedo
SMASSII spectral type spec_B S   n/a EAR-A-5-DDR-TAXONOMY-V4.0 based on a high-resolution spectrum by Xu et al. (1995) or Bus and Binzel (2002)

6 Hebe          Discovered 1847-Jul-01 by Hencke, K. L. at Driesen
Reference: DISCOVERY.DBLast Updated: 2003-08-29

Alternate Designations
 1947 JB 
Ephemeris | Orbit Diagram | Orbital Elements | Physical Parameters | Discovery Circumstances ]
ABOUT SSD CREDITS/AWARDS PRIVACY/COPYRIGHT GLOSSARY LINKS
FirstGov 2013-May-19 18:59 UT
(server date/time)  
NASA Home Page
Site Manager:   Donald K. Yeomans
Webmaster  Alan B. Chamberlin